Tracking 31011 objects as of 12-Jul-2025
HD Live streaming from Space Station
objects crossing your sky now

STARLING 2

Track STARLING 2 now!
10-day predictions


NORAD ID: 57387
Int'l Code: 2023-100B
Perigee: 557.8 km
Apogee: 566.8 km
Inclination: 99.5 °
Period: 95.8 minutes
Semi major axis: 6933 km
RCS: Unknown
Launch date: July 18, 2023
Source: United States (US)
Launch site: Rocket Lab Launch Complex (RLLC)
Your satellite tracking list
Your tracking list is empty




NASA's NSSDC Master Catalog

Two Line Element Set (TLE):
1 57387U 23100B   25192.89127767  .00003423  00000-0  25517-3 0  9997
2 57387  99.4832 127.5447 0006559 131.3344 228.8441 15.03809332108700
Source of the keplerian elements: AFSPC